TimeCDT,TemperatureF,Dew PointF,Humidity,Sea Level PressureIn,VisibilityMPH,Wind Direction,Wind SpeedMPH,Gust SpeedMPH,PrecipitationIn,Events,Conditions,WindDirDegrees,DateUTC
12:56 AM,55.9,37.9,51,30.25,-9999.0,NE,4.6,-,N/A,,Unknown,40,2012-10-05 05:56:00
1:56 AM,55.0,37.0,51,30.23,-9999.0,ENE,9.2,-,N/A,,Unknown,60,2012-10-05 06:56:00
2:56 AM,55.0,35.1,47,30.22,-9999.0,NE,8.1,-,N/A,,Unknown,50,2012-10-05 07:56:00
3:56 AM,54.0,35.1,49,30.21,-9999.0,NE,8.1,-,N/A,,Unknown,40,2012-10-05 08:56:00
4:56 AM,53.1,34.0,48,30.21,-9999.0,NNE,10.4,-,N/A,,Unknown,30,2012-10-05 09:56:00
5:56 AM,52.0,34.0,50,30.22,-9999.0,NNE,13.8,-,N/A,,Unknown,30,2012-10-05 10:56:00
6:56 AM,51.1,33.1,50,30.23,-9999.0,NNE,12.7,-,N/A,,Unknown,30,2012-10-05 11:56:00
7:56 AM,50.0,33.1,52,30.22,-9999.0,NE,10.4,-,N/A,,Unknown,40,2012-10-05 12:56:00
8:56 AM,50.0,32.0,50,30.22,-9999.0,NE,12.7,-,N/A,,Unknown,50,2012-10-05 13:56:00
9:56 AM,52.0,32.0,47,30.24,-9999.0,ENE,15.0,-,N/A,,Unknown,60,2012-10-05 14:56:00
10:56 AM,55.0,32.0,42,30.26,-9999.0,NNE,12.7,19.6,N/A,,Unknown,30,2012-10-05 15:56:00
11:56 AM,55.9,32.0,40,30.25,-9999.0,NE,15.0,-,N/A,,Unknown,50,2012-10-05 16:56:00
12:56 PM,57.0,33.1,40,30.25,-9999.0,NE,15.0,23.0,N/A,,Unknown,40,2012-10-05 17:56:00
1:56 PM,60.1,32.0,35,30.22,-9999.0,NE,13.8,-,N/A,,Unknown,50,2012-10-05 18:56:00
2:56 PM,60.1,30.9,33,30.20,-9999.0,NNE,17.3,25.3,N/A,,Unknown,20,2012-10-05 19:56:00
3:56 PM,57.9,30.0,35,30.20,-9999.0,NE,18.4,25.3,N/A,,Unknown,50,2012-10-05 20:56:00
4:56 PM,57.0,25.0,29,30.21,-9999.0,NE,17.3,25.3,N/A,,Unknown,40,2012-10-05 21:56:00
5:56 PM,57.0,24.1,28,30.21,-9999.0,NE,17.3,-,N/A,,Unknown,50,2012-10-05 22:56:00
6:56 PM,51.1,30.0,44,30.24,-9999.0,NNE,21.9,28.8,N/A,,Unknown,30,2012-10-05 23:56:00
7:56 PM,48.0,30.9,52,30.27,-9999.0,NNE,15.0,-,N/A,,Unknown,30,2012-10-06 00:56:00
8:56 PM,46.9,32.0,56,30.31,-9999.0,NNE,9.2,-,N/A,,Unknown,30,2012-10-06 01:56:00
9:56 PM,45.0,32.0,60,30.32,-9999.0,NNE,9.2,-,N/A,,Unknown,30,2012-10-06 02:56:00
10:56 PM,43.0,30.9,62,30.32,-9999.0,NNE,9.2,-,N/A,,Unknown,20,2012-10-06 03:56:00
11:56 PM,41.0,30.9,67,30.34,-9999.0,North,5.8,-,N/A,,Unknown,360,2012-10-06 04:56:00